| time (UTC) | temp F | wind direction | speed MPH | gust MPH | rain 1hr in | rain 24hr in | rain mn in | humidity % | barometer mb |
| 20260502163032 | 81 | 267 | 11.0 | 19.0 | 0.00 | 0.00 | 0.00 | 25 | 1014.4 |
| 20260502161528 | 81 | 256 | 10.0 | 16.0 | 0.00 | 0.00 | 0.00 | 24 | 1014.3 |
| 20260502151523 | 79 | 243 | 10.0 | 17.0 | 0.00 | 0.00 | 0.00 | 24 | 1013.9 |
| 20260502123010 | 74 | 169 | 8.0 | 15.0 | 0.00 | 0.00 | 0.00 | 20 | 1011.7 |
| 20260502121514 | 75 | 213 | 9.0 | 16.0 | 0.00 | 0.00 | 0.00 | 20 | 1011.5 |
| 20260502114525 | 75 | 176 | 9.0 | 16.0 | 0.00 | 0.00 | 0.00 | 20 | 1011.5 |
| 20260502113027 | 75 | 172 | 8.0 | 14.0 | 0.00 | 0.00 | 0.00 | 20 | 1011.4 |
| 20260502111510 | 76 | 195 | 10.0 | 15.0 | 0.00 | 0.00 | 0.00 | 20 | 1011.3 |
| 20260502110104 | 76 | 149 | 7.0 | 14.0 | 0.00 | 0.00 | 0.00 | 20 | 1011.3 |
| 20260502101508 | 77 | 172 | 10.0 | 16.0 | 0.00 | 0.00 | 0.00 | 19 | 1011.1 |
| 20260502091527 | 79 | 219 | 8.0 | 16.0 | 0.00 | 0.00 | 0.00 | 18 | 1010.8 |
| 20260502071520 | 82 | 178 | 4.0 | 5.0 | 0.00 | 0.00 | 0.00 | 13 | 1010.1 |
| 20260502070032 | 79 | 195 | 4.0 | 6.0 | 0.00 | 0.00 | 0.00 | 14 | 1010.0 |
| 20260502064507 | 76 | 53 | 2.0 | 6.0 | 0.00 | 0.00 | 0.00 | 16 | 1010.0 |
| 20260502063012 | 78 | 352 | 3.0 | 7.0 | 0.00 | 0.00 | 0.00 | 16 | 1010.0 |
| 20260502061516 | 79 | 57 | 5.0 | 7.0 | 0.00 | 0.00 | 0.00 | 14 | 1009.9 |
| 20260502060021 | 81 | 95 | 6.0 | 8.0 | 0.00 | 0.00 | 0.00 | 13 | 1010.1 |
| 20260502054527 | 82 | 94 | 9.0 | 13.0 | 0.00 | 0.00 | 0.00 | 13 | 1010.1 |
| 20260502053010 | 81 | 97 | 9.0 | 10.0 | 0.00 | 0.00 | 0.00 | 14 | 1010.1 |
| 20260502051524 | 80 | 79 | 9.0 | 10.0 | 0.00 | 0.00 | 0.00 | 17 | 1010.1 |
| 20260502050020 | 81 | 77 | 6.0 | 10.0 | 0.00 | 0.00 | 0.00 | 17 | 1010.0 |
| 20260502044525 | 81 | 68 | 7.0 | 9.0 | 0.00 | 0.00 | 0.00 | 17 | 1009.7 |
| 20260502043027 | 82 | 72 | 5.0 | 7.0 | 0.00 | 0.00 | 0.00 | 17 | 1009.7 |
| 20260502041513 | 82 | 85 | 3.0 | 4.0 | 0.00 | 0.00 | 0.00 | 17 | 1009.5 |
| 20260502040029 | 82 | 61 | 2.0 | 4.0 | 0.00 | 0.00 | 0.00 | 17 | 1009.2 |
| 20260502034520 | 83 | 75 | 2.0 | 2.0 | 0.00 | 0.00 | 0.00 | 17 | 1009.0 |
| 20260502033023 | 83 | 81 | 1.0 | 2.0 | 0.00 | 0.00 | 0.00 | 16 | 1008.8 |
| 20260502031528 | 84 | 40 | 5.0 | 7.0 | 0.00 | 0.00 | 0.00 | 16 | 1008.6 |
| 20260502030012 | 85 | 37 | 5.0 | 7.0 | 0.00 | 0.00 | 0.00 | 16 | 1008.4 |
| 20260502024535 | 85 | 46 | 5.0 | 9.0 | 0.00 | 0.00 | 0.00 | 16 | 1008.2 |
| 20260502023024 | 86 | 51 | 6.0 | 10.0 | 0.00 | 0.00 | 0.00 | 15 | 1008.2 |
| 20260502021523 | 86 | 35 | 6.0 | 10.0 | 0.00 | 0.00 | 0.00 | 15 | 1008.0 |
| 20260502020029 | 87 | 42 | 6.0 | 12.0 | 0.00 | 0.00 | 0.00 | 15 | 1007.8 |
| 20260502014525 | 87 | 56 | 9.0 | 14.0 | 0.00 | 0.00 | 0.00 | 15 | 1007.7 |
| 20260502013025 | 88 | 51 | 10.0 | 16.0 | 0.00 | 0.00 | 0.00 | 15 | 1007.8 |
| 20260502011522 | 88 | 55 | 10.0 | 14.0 | 0.00 | 0.00 | 0.00 | 14 | 1007.8 |
| 20260502010028 | 89 | 41 | 6.0 | 13.0 | 0.00 | 0.00 | 0.00 | 14 | 1007.8 |
| 20260502004528 | 89 | 50 | 9.0 | 14.0 | 0.00 | 0.00 | 0.00 | 13 | 1007.7 |
| 20260502003015 | 89 | 89 | 8.0 | 15.0 | 0.00 | 0.00 | 0.00 | 13 | 1007.8 |
| 20260502001521 | 89 | 99 | 10.0 | 14.0 | 0.00 | 0.00 | 0.00 | 13 | 1007.8 |
| 20260502000023 | 89 | 86 | 11.0 | 18.0 | 0.00 | 0.00 | 0.00 | 14 | 1007.8 |
| 20260501234525 | 89 | 11 | 12.0 | 16.0 | 0.00 | 0.00 | 0.00 | 16 | 1007.9 |
| 20260501233028 | 89 | 106 | 6.0 | 15.0 | 0.00 | 0.00 | 0.00 | 15 | 1007.9 |
| 20260501231532 | 87 | 89 | 5.0 | 16.0 | 0.00 | 0.00 | 0.00 | 15 | 1008.1 |
| 20260501230021 | 88 | 32 | 10.0 | 18.0 | 0.00 | 0.00 | 0.00 | 16 | 1008.2 |
| 20260501224527 | 87 | 94 | 5.0 | 14.0 | 0.00 | 0.00 | 0.00 | 17 | 1008.6 |
| 20260501223008 | 86 | 70 | 8.0 | 16.0 | 0.00 | 0.00 | 0.00 | 20 | 1008.8 |
| 20260501221515 | 87 | 48 | 6.0 | 13.0 | 0.00 | 0.00 | 0.00 | 20 | 1008.9 |
| 20260501220023 | 86 | 61 | 9.0 | 15.0 | 0.00 | 0.00 | 0.00 | 20 | 1009.2 |
| 20260501214525 | 86 | 37 | 8.0 | 14.0 | 0.00 | 0.00 | 0.00 | 20 | 1009.5 |
| 20260501213007 | 85 | 40 | 6.0 | 13.0 | 0.00 | 0.00 | 0.00 | 19 | 1009.9 |
| 20260501211510 | 84 | 63 | 9.0 | 14.0 | 0.00 | 0.00 | 0.00 | 20 | 1010.2 |
| 20260501210016 | 83 | 70 | 9.0 | 15.0 | 0.00 | 0.00 | 0.00 | 21 | 1010.5 |
| 20260501204520 | 83 | 53 | 6.0 | 13.0 | 0.00 | 0.00 | 0.00 | 24 | 1010.6 |
| 20260501203038 | 82 | 20 | 5.0 | 14.0 | 0.00 | 0.00 | 0.00 | 23 | 1010.8 |
| 20260501201507 | 82 | 72 | 9.0 | 16.0 | 0.00 | 0.00 | 0.00 | 24 | 1010.9 |
| 20260501200012 | 82 | 67 | 8.0 | 14.0 | 0.00 | 0.00 | 0.00 | 25 | 1011.0 |
| 20260501194519 | 83 | 98 | 3.0 | 12.0 | 0.00 | 0.00 | 0.00 | 25 | 1011.1 |
| 20260501193020 | 83 | 94 | 1.0 | 8.0 | 0.00 | 0.00 | 0.00 | 25 | 1011.4 |
| 20260501191525 | 80 | 64 | 5.0 | 12.0 | 0.00 | 0.00 | 0.00 | 27 | 1011.7 |
| 20260501190007 | 81 | 48 | 8.0 | 13.0 | 0.00 | 0.00 | 0.00 | 27 | 1011.8 |
| 20260501184531 | 80 | 30 | 9.0 | 13.0 | 0.00 | 0.00 | 0.00 | 28 | 1012.0 |
| 20260501183030 | 79 | 293 | 4.0 | 7.0 | 0.00 | 0.00 | 0.00 | 27 | 1012.2 |
| 20260501181521 | 79 | 267 | 5.0 | 10.0 | 0.00 | 0.00 | 0.00 | 29 | 1012.3 |